Dewpoint
70 69 68 68 69 69 67 68 59 63 60 55 58 60 58 60 59 61 61 62 61 62 64 55 59 59 60 58 59 59 60 60 60 53 55 65 69 69 69 71 71 71 71 71 73 74 75 76 76 76 76 76 76 77 77 77 76 76 76 76 76 76 76 76 76 76 75 75 75 76 76 76 76 76 76 76 76 76 76 76 75 75 75 75 75 74 74 74 74 75 75 75 75 75 75 75 75
68 67 67 68 67 67 66 70 59 59 58 57 58 57 57 61 60 60 60 62 62 61 55 58 57 59 59 59 59 60 61 61 63 63 65 67 68 70 69 70 70 70 71 71 72 72 74 75 77 76 76 77 77 77 77 77 76 76 76 76 76 76 76 76 76 76 76 76 76 76 76 76 76 76 76 76 76 75 75 75 74 75 75 75 75 74 74 75 74 74 74 75 75 75 75 75 75
66 65 66 66 64 64 68 65 56 57 55 53 53 60 63 60 59 59 61 62 62 61 55 62 57 56 57 58 58 61 59 63 63 64 65 67 67 68 69 69 69 70 71 71 71 72 74 75 77 77 77 77 77 77 77 77 76 76 76 76 76 76 76 76 77 77 76 76 76 76 76 76 76 76 76 75 75 75 76 75 75 76 75 75 74 73 74 74 74 75 74 75 74 75 75 74 75
64 65 63 63 64 64 61 63 58 57 54 54 56 58 60 59 59 60 62 62 60 54 55 57 56 59 59 57 59 61 60 61 64 64 65 66 67 67 68 69 71 70 69 69 70 72 73 76 77 76 77 77 77 77 77 76 76 76 76 76 76 76 76 76 77 77 76 76 76 76 75 75 75 75 75 75 75 75 75 75 75 75 75 75 74 75 75 75 75 75 74 74 74 75 75 75 75
71 70 64 63 63 61 62 60 60 60 55 56 58 61 60 60 61 61 60 65 57 55 56 56 57 59 63 59 58 59 60 61 64 64 65 66 67 67 68 69 68 68 68 68 70 72 74 76 77 76 76 77 76 76 76 76 76 76 76 76 76 76 76 77 77 76 76 76 76 76 76 75 75 75 74 75 75 75 75 75 75 75 75 75 74 75 75 75 74 74 74 74 75 75 74 75 75
71 69 64 65 62 71 65 59 57 58 60 59 62 59 61 61 61 60 59 61 54 57 58 58 57 59 59 57 59 60 60 59 62 64 65 67 67 67 67 68 67 67 67 68 69 72 74 77 77 76 76 76 76 76 76 76 76 76 76 75 75 75 75 76 76 76 76 76 76 76 75 76 75 74 75 75 75 75 75 76 75 75 75 74 74 74 75 75 74 74 75 74 74 74 75 75 75
68 66 64 64 64 63 57 59 58 59 55 60 57 61 60 62 65 65 60 54 59 58 60 59 59 58 57 60 60 61 62 61 61 62 66 67 68 68 67 67 66 67 67 69 72 73 74 77 77 77 76 76 77 76 76 76 76 76 76 76 75 75 75 76 76 76 75 76 76 76 76 76 75 74 75 75 75 75 75 75 75 75 74 75 74 74 75 75 75 75 74 74 74 74 74 75 75
69 63 66 62 61 62 58 57 59 60 61 63 63 62 62 65 66 63 57 59 56 58 58 59 58 59 57 60 58 60 61 61 61 64 66 66 67 67 67 67 66 66 67 71 73 75 77 77 77 77 76 76 76 76 76 76 75 75 75 75 75 75 75 75 76 76 75 75 76 75 75 76 75 74 75 75 74 74 75 75 75 75 75 74 74 74 75 75 74 74 74 74 74 74 75 75 75
65 63 68 63 59 60 59 59 57 57 60 64 63 65 66 67 67 63 59 59 57 57 57 57 58 56 56 59 59 60 60 62 62 66 66 66 66 67 66 67 66 65 68 72 74 75 75 77 77 76 76 76 76 76 76 76 76 76 76 76 76 75 76 75 76 76 75 75 75 75 75 75 75 75 75 75 75 75 75 75 75 75 75 74 74 74 74 75 75 74 75 75 75 74 74 75 75
63 64 63 63 60 56 57 58 55 58 59 66 62 64 66 67 61 60 57 57 56 56 56 58 58 58 59 59 62 62 60 62 64 63 64 66 66 66 66 65 65 67 70 72 73 74 75 78 77 76 76 76 76 76 76 76 76 76 76 76 75 75 75 76 76 76 76 76 76 76 76 75 75 75 75 75 75 75 75 75 74 74 74 74 74 75 75 75 75 75 75 74 74 74 74 75 75
63 66 67 61 57 58 56 55 58 59 62 64 62 67 66 61 60 61 58 59 58 57 58 59 57 57 57 59 61 62 63 62 62 61 63 63 66 65 64 64 65 66 69 71 73 74 74 75 76 76 76 76 76 76 76 76 76 76 76 76 76 76 76 76 76 76 76 75 75 76 76 75 75 75 75 75 75 75 75 75 75 74 74 74 75 75 75 75 75 75 74 74 74 75 75 76 75
63 63 64 58 57 57 57 58 59 62 63 63 61 66 64 61 61 59 60 58 57 57 58 59 60 58 58 58 61 61 61 63 61 61 62 63 63 64 64 64 65 67 69 71 73 73 74 75 75 77 76 76 76 77 77 76 76 76 76 76 76 76 76 76 76 76 75 75 75 76 75 75 75 76 75 74 75 75 75 75 75 74 75 75 75 75 75 75 75 75 75 75 75 75 76 76 75
63 65 61 59 60 61 61 59 57 60 59 59 60 64 62 59 59 58 62 56 57 57 61 62 59 58 57 58 61 61 59 59 61 61 61 62 62 62 63 63 65 68 70 71 71 72 73 73 74 74 75 77 77 77 76 76 76 76 76 76 75 76 76 76 76 75 75 75 75 76 75 75 76 76 75 74 75 75 75 75 75 75 75 75 74 74 75 75 75 75 75 75 75 75 76 75 75
66 64 63 58 63 59 60 59 58 58 59 60 61 64 64 60 58 59 58 58 57 59 60 60 60 60 59 59 60 60 59 59 59 60 61 61 61 61 62 62 65 68 69 70 71 72 72 72 73 74 75 75 75 76 76 76 76 75 75 75 75 76 76 76 76 75 75 75 75 76 76 76 76 76 76 75 75 75 75 75 74 75 75 74 74 74 75 75 75 76 75 75 75 75 75 75 75
62 68 63 60 60 59 57 56 54 53 56 61 64 62 61 59 59 60 60 58 59 59 59 60 60 59 57 58 59 60 59 59 60 60 60 60 59 60 61 63 64 66 68 69 70 70 71 71 72 74 75 75 75 75 76 75 76 75 75 75 75 76 76 76 76 75 76 76 76 76 75 75 75 75 75 76 76 75 75 75 75 74 74 74 74 75 75 76 75 75 75 75 75 75 75 75 75
64 65 62 58 57 54 53 53 55 56 56 61 64 65 57 59 59 58 59 60 58 59 59 59 60 63 57 58 60 60 60 60 60 60 60 60 59 59 60 62 63 64 67 69 69 69 70 71 73 73 73 74 75 74 75 75 75 76 76 75 75 75 76 76 76 75 75 76 76 75 76 75 75 75 75 75 75 75 75 74 74 75 74 74 74 75 76 76 75 75 75 75 75 75 75 75 75
59 62 60 57 59 53 54 54 55 57 57 61 62 64 62 57 58 60 60 59 59 59 59 59 59 60 57 58 60 61 60 60 61 60 60 60 60 59 61 62 62 63 65 67 68 69 70 71 73 73 73 74 74 74 74 74 74 75 75 75 76 75 76 75 75 76 76 75 75 75 75 74 75 75 74 73 74 74 74 75 74 74 75 74 75 75 76 76 76 75 75 75 75 75 75 75 75
60 62 61 59 58 54 55 57 55 55 59 57 63 66 65 55 58 59 60 58 59 59 57 57 58 59 59 59 61 61 60 59 59 59 59 58 59 59 59 60 61 62 63 66 68 69 70 72 73 73 73 74 74 74 73 74 75 75 75 75 75 75 75 75 75 75 75 75 75 76 76 75 75 76 75 75 74 75 74 74 74 74 75 75 75 75 76 76 76 76 75 75 75 75 75 75 75
51 52 58 55 54 56 58 59 60 57 59 57 60 63 63 54 57 57 62 59 57 58 56 58 58 59 59 60 60 60 59 59 59 59 58 57 58 59 59 61 62 61 63 66 69 68 71 72 72 72 72 73 73 73 72 74 74 75 75 75 75 76 76 75 76 75 75 75 75 75 77 75 73 75 76 75 74 74 74 74 74 74 75 75 75 75 75 76 76 76 76 75 75 75 75 77 75
50 47 50 58 59 56 61 60 63 61 58 57 62 62 56 60 62 57 62 57 60 62 55 57 59 58 59 60 60 60 59 59 59 59 58 58 58 58 59 60 61 63 62 65 69 70 71 71 72 72 73 73 73 72 72 73 73 74 73 74 75 75 75 74 75 75 76 75 74 75 74 75 74 76 74 75 75 74 74 75 75 75 75 75 76 75 75 75 75 75 76 76 76 76 74 74 77
49 47 44 52 58 57 59 64 64 61 62 60 60 62 58 57 60 57 62 62 63 64 57 57 58 58 59 60 60 60 58 58 59 59 58 59 58 58 58 60 60 62 63 64 68 69 70 71 72 73 73 74 73 71 71 71 73 72 72 73 74 75 76 75 75 75 76 76 75 76 74 73 73 75 75 74 76 75 75 75 74 74 75 75 75 75 75 75 76 75 75 76 76 75 75 74 74
45 44 45 55 58 54 60 60 63 62 62 62 58 61 61 59 60 60 63 63 60 65 60 63 58 59 59 60 60 60 59 59 59 59 59 58 58 59 58 59 60 61 63 64 66 68 70 71 72 72 72 73 74 71 70 72 73 71 72 73 75 74 75 75 75 75 75 75 75 74 73 72 73 75 75 75 75 75 74 75 75 76 75 75 75 75 75 75 75 74 75 74 75 75 74 74 73
43 41 40 47 56 55 61 57 61 62 66 61 64 64 62 56 62 60 59 61 62 65 60 58 59 59 60 60 60 59 59 59 59 59 59 58 58 58 58 59 59 60 62 64 67 67 69 71 72 73 72 74 74 72 71 71 70 70 72 73 72 72 74 75 75 74 74 76 75 75 73 73 73 73 74 75 75 75 74 74 75 76 75 75 77 75 74 76 76 76 75 75 74 71 71 73 73
38 37 40 44 50 55 62 56 56 61 62 63 65 62 59 59 63 58 58 61 65 63 64 61 59 58 59 60 60 60 60 60 60 59 59 58 57 57 57 58 59 60 63 64 65 66 67 69 72 72 73 73 74 71 72 70 69 68 71 74 73 73 73 73 73 74 75 74 76 76 78 75 77 74 74 75 76 74 74 74 75 75 75 75 76 75 73 75 76 77 76 74 73 74 70 74 72
37 35 35 37 55 59 57 56 55 52 63 64 62 60 56 58 64 60 60 57 61 63 62 59 58 58 59 59 59 60 61 61 61 60 59 58 58 57 57 58 59 59 61 63 65 66 66 68 69 69 70 71 71 69 69 69 68 68 70 71 71 74 73 72 73 74 73 74 75 76 75 73 73 73 73 74 75 74 74 75 74 75 74 75 74 74 75 76 75 75 76 75 75 75 75 72 72
36 35 34 35 36 62 57 58 55 63 57 59 59 52 56 59 57 57 62 59 61 61 60 58 57 58 58 59 59 59 59 61 60 59 58 57 58 58 58 58 59 59 60 62 63 65 65 66 66 67 68 70 71 68 70 70 70 69 70 71 72 74 72 71 73 72 73 73 74 75 74 76 73 75 73 74 76 76 74 73 75 74 74 75 74 76 75 76 75 77 75 74 71 73 74 72 73
33 33 35 35 35 35 51 61 57 55 52 51 50 55 61 60 57 56 59 61 59 60 57 57 56 56 57 57 58 58 59 60 59 59 60 58 59 58 58 58 59 59 61 61 62 64 67 65 65 68 69 73 70 68 71 71 71 70 70 71 71 71 70 72 69 68 71 71 73 75 76 76 74 71 74 75 74 75 74 73 74 75 75 75 75 75 76 77 77 77 75 75 77 76 75 76 75
25 30 34 36 36 34 33 42 61 59 51 51 51 52 52 57 54 59 59 59 60 61 57 55 57 57 57 58 58 59 60 59 60 60 58 57 59 58 58 58 58 60 60 60 61 63 64 63 64 67 68 70 71 68 72 70 71 70 72 72 70 71 73 70 67 67 70 72 73 76 77 76 79 75 78 74 74 76 75 75 75 77 75 75 76 76 77 75 78 75 76 75 75 75 76 75 74
23 26 29 31 31 33 37 36 43 51 57 51 52 52 52 53 52 60 58 59 60 58 57 55 58 57 58 59 59 60 60 60 60 59 58 58 59 58 58 57 58 60 61 60 61 61 61 62 64 66 67 71 70 68 69 70 70 68 70 70 71 71 71 71 68 72 74 74 75 75 77 78 78 76 76 78 75 75 75 76 75 76 76 74 77 75 75 77 77 77 75 75 77 76 74 74 73
21 22 24 25 26 26 30 36 36 46 49 50 50 47 50 54 54 57 57 57 58 58 56 56 56 58 58 59 59 59 59 60 59 58 59 58 59 59 59 57 59 60 61 62 59 59 61 61 64 65 67 67 70 68 71 70 70 70 71 69 73 72 71 69 71 74 76 74 75 77 77 76 77 78 77 78 75 74 75 75 76 76 77 76 75 78 77 76 75 76 75 76 75 75 74 74 75
20 20 21 21 22 24 28 32 35 36 46 50 50 47 49 51 52 55 55 57 58 58 57 54 54 56 57 58 59 59 59 61 59 58 58 59 59 59 59 59 60 60 61 61 59 60 60 61 63 64 68 67 68 70 69 71 71 69 70 69 71 73 71 70 68 72 72 73 75 76 77 78 77 78 78 78 77 77 75 75 75 75 77 77 77 78 77 77 77 76 76 76 75 77 74 73 74
21 19 18 19 20 22 25 28 32 34 42 49 49 45 53 50 52 53 54 57 57 57 56 54 54 55 57 58 58 58 58 59 59 58 58 59 59 59 59 59 59 59 60 63 60 60 58 61 64 64 66 67 69 71 71 71 70 71 70 71 71 73 71 69 68 69 70 71 73 75 77 78 77 78 79 79 76 77 74 74 76 78 77 77 77 79 78 77 77 77 76 76 77 74 75 74 73
18 19 17 18 20 21 22 24 26 34 39 46 47 46 47 48 51 53 55 54 55 57 56 56 62 56 57 58 58 58 58 59 59 59 59 59 59 60 60 60 60 60 60 62 61 63 60 61 64 63 64 65 69 67 72 72 72 72 71 68 66 72 68 67 70 68 69 70 71 73 76 78 78 78 78 79 80 75 75 76 75 75 77 78 77 79 77 76 77 73 77 77 75 77 75 72 72
15 17 17 17 18 20 21 22 23 32 36 41 46 45 46 49 52 52 55 55 55 57 58 55 61 60 57 57 59 57 58 59 58 59 59 60 59 60 60 64 60 60 61 62 62 62 59 62 61 63 65 63 70 70 72 71 71 73 71 70 72 70 66 66 66 68 69 68 71 74 77 77 78 78 79 79 80 75 75 76 76 77 77 79 78 78 77 76 76 76 76 78 77 76 75 74 73
12 15 15 15 18 19 19 20 23 32 36 38 44 44 47 48 53 52 54 54 56 57 58 57 62 60 61 57 58 58 58 58 58 59 59 59 59 60 60 61 60 60 60 62 62 66 64 64 65 68 66 65 68 71 74 72 72 73 69 71 69 73 73 68 68 69 68 68 69 75 77 76 78 79 79 78 79 77 76 77 77 77 77 78 78 75 75 75 75 75 76 76 77 76 75 73 73
8 9 10 13 13 17 18 20 23 32 36 38 40 43 43 51 49 53 53 54 54 55 57 57 61 60 63 62 59 57 58 58 59 59 60 59 59 60 60 61 60 60 61 64 65 66 67 65 67 69 68 65 71 72 73 70 70 70 67 69 68 70 72 70 70 69 68 69 73 74 77 78 78 79 79 78 79 78 77 78 78 76 79 78 77 75 74 76 75 75 75 73 76 75 76 75 72
9 6 5 5 8 13 17 19 22 28 34 37 38 40 43 51 52 54 53 54 54 54 56 56 60 60 61 61 62 61 59 58 58 59 59 60 59 60 61 61 61 62 64 65 64 65 67 63 68 68 69 68 72 71 71 70 70 70 69 66 66 66 71 70 68 67 67 68 74 75 77 76 78 79 79 79 78 79 78 79 77 79 78 78 77 75 75 76 77 77 77 77 73 76 74 73 72
16 12 7 5 5 7 13 17 21 22 31 33 36 39 42 50 50 52 53 53 53 54 55 59 61 61 61 62 62 63 62 59 58 58 58 59 59 59 60 61 63 61 64 64 63 64 66 60 66 67 69 69 72 71 72 71 72 69 68 66 64 65 68 69 70 72 65 67 75 77 76 75 77 78 79 79 80 79 78 78 79 78 79 78 78 77 77 77 77 76 76 77 77 75 75 69 71
17 15 11 8 10 13 12 13 18 21 21 26 33 36 40 41 47 48 48 50 51 52 57 60 63 62 62 62 62 64 63 60 58 58 58 59 59 59 60 61 61 61 62 62 64 65 67 65 69 68 69 70 72 72 72 72 71 71 68 67 64 63 66 66 65 66 67 66 71 75 76 77 77 78 78 79 79 78 79 79 79 79 76 78 79 78 78 76 78 76 76 76 76 76 74 75 75
14 13 11 8 8 11 12 12 14 19 20 24 31 32 36 40 48 48 47 50 52 53 55 62 65 63 63 60 61 63 66 62 60 59 58 58 59 60 60 61 62 62 64 63 63 66 65 68 70 69 70 71 71 73 73 71 71 72 72 70 68 64 64 67 70 69 69 68 69 71 76 77 76 75 75 75 77 77 77 78 78 78 78 79 79 79 79 76 76 77 75 75 75 72 70 72 72
15 12 10 8 6 7 10 12 13 16 19 21 26 32 33 36 39 47 49 48 51 50 54 62 64 64 64 62 61 62 64 66 61 59 59 59 59 59 61 63 62 61 63 64 64 64 63 68 70 71 70 72 72 73 72 72 73 72 72 73 71 74 67 67 67 65 67 69 68 71 72 75 76 75 75 75 76 77 77 77 77 78 78 78 79 79 78 75 75 76 76 76 74 74 72 71 73
15 13 10 9 8 7 6 8 11 15 18 20 21 25 30 34 36 38 45 47 50 54 55 61 63 64 67 66 64 61 64 61 59 60 59 59 59 60 62 63 62 62 63 64 65 65 65 68 70 72 71 73 71 73 73 72 72 72 71 72 69 72 68 67 67 66 62 64 64 68 70 71 72 74 75 75 75 76 77 77 77 77 79 80 79 77 76 77 76 76 75 75 74 75 75 74 72
15 15 13 10 8 8 6 5 7 14 18 19 21 20 22 28 31 38 41 44 48 54 56 59 63 64 66 68 66 65 60 59 60 61 60 58 59 60 62 62 61 61 63 64 65 66 67 69 71 72 72 73 72 74 73 72 72 73 71 69 68 68 70 67 70 66 65 65 67 69 71 71 75 72 72 75 75 76 77 78 78 77 77 77 78 79 79 75 73 74 75 76 75 79 78 76 73
15 16 14 12 10 8 5 5 8 9 8 12 16 20 22 25 27 31 35 41 46 51 57 57 62 63 63 63 63 64 60 56 57 62 62 60 60 60 61 62 62 62 63 64 65 66 69 71 71 72 73 73 73 74 74 73 72 73 72 70 69 67 66 69 69 72 71 69 69 68 70 71 74 74 73 77 76 76 77 77 78 78 78 74 77 77 76 75 75 75 77 78 78 79 79 78 74
16 16 15 12 8 9 8 6 6 7 5 11 14 19 24 28 30 32 32 37 43 44 57 59 62 62 62 62 61 61 57 59 60 60 60 60 62 60 61 63 63 62 63 65 66 67 70 71 73 73 74 74 74 74 74 73 73 74 72 70 71 68 69 71 71 71 72 71 69 72 72 71 74 75 76 74 76 76 77 78 78 78 77 77 77 76 74 72 73 76 79 78 77 78 77 79 79
16 15 16 13 8 7 8 8 7 6 9 10 15 17 23 26 26 28 30 41 43 44 51 57 59 60 61 60 59 57 58 58 58 58 61 63 61 61 61 62 63 62 63 66 65 67 68 71 73 73 74 73 74 74 74 73 74 74 73 70 71 69 70 71 70 71 74 74 73 71 74 76 72 74 74 76 77 76 76 77 76 75 76 72 74 74 74 75 75 77 77 77 78 78 81 77 76
14 16 16 12 8 8 13 12 15 12 8 10 7 16 21 22 26 26 28 26 43 47 47 58 56 58 62 59 58 56 58 60 60 60 60 61 59 60 62 62 65 64 64 65 65 67 68 69 73 74 74 73 74 74 74 73 74 74 73 71 71 70 70 70 70 71 71 73 72 70 72 76 74 73 72 75 75 74 76 76 73 74 75 75 77 76 76 72 71 73 74 77 78 78 78 78 77
16 16 13 11 14 14 18 17 20 14 10 10 2 7 17 22 26 25 28 29 27 40 48 58 57 57 57 56 55 59 61 60 59 59 59 61 62 62 61 62 63 65 64 65 65 66 69 70 72 74 75 74 74 74 74 73 73 74 73 72 72 71 70 68 69 71 69 71 70 72 73 74 75 74 74 73 72 71 75 76 76 75 76 76 76 76 75 74 72 72 75 77 77 77 78 80 78
17 16 15 11 14 15 14 17 14 14 13 12 3 1 5 14 23 23 23 22 24 30 46 55 55 56 56 55 54 57 58 59 58 59 61 62 62 61 60 63 66 67 66 66 65 64 67 71 72 73 74 75 75 75 74 74 74 74 73 72 72 72 71 70 70 71 70 70 69 71 74 73 74 75 74 72 72 72 75 77 76 76 77 76 77 77 77 78 80 78 77 73 76 77 77 77 78
16 14 14 14 13 13 16 16 18 15 13 11 8 5 3 7 9 16 15 17 26 29 32 52 53 55 54 55 58 58 59 60 61 61 61 62 64 64 65 65 66 66 65 65 65 67 68 69 72 73 74 75 75 75 74 74 74 74 74 73 73 72 72 71 70 69 70 71 71 71 69 69 73 71 70 72 70 70 72 75 76 76 78 78 78 79 78 79 78 78 76 76 73 77 78 77 78
15 13 9 13 17 12 16 16 16 16 16 12 9 7 12 4 11 2 6 12 17 28 29 46 52 54 55 55 56 56 57 57 57 58 57 60 62 64 63 64 64 65 65 63 64 67 69 70 72 74 74 75 75 75 75 74 74 74 74 74 73 73 72 71 70 69 71 71 70 70 71 69 70 71 71 73 74 75 73 74 76 76 76 78 78 78 77 78 79 78 78 75 77 78 77 77 77
16 12 11 12 15 17 14 16 16 15 14 14 14 10 12 10 15 10 8 4 16 22 29 32 53 48 53 53 54 53 54 56 58 59 61 62 62 63 64 64 65 65 66 63 64 68 68 70 73 74 74 74 75 75 74 74 74 74 75 75 74 74 73 72 72 71 72 72 72 71 72 72 70 72 73 73 71 74 74 74 75 75 77 76 78 78 78 77 78 78 78 78 77 73 77 76 77
17 13 13 13 14 14 19 20 17 18 19 19 18 13 10 13 8 4 7 8 16 25 26 24 47 54 54 53 53 52 53 56 58 58 58 60 61 67 64 65 64 64 65 65 67 68 69 71 72 74 74 74 74 74 74 74 74 74 74 74 74 74 73 72 70 70 67 71 73 72 72 70 70 73 72 71 72 73 75 74 74 73 76 76 77 78 77 78 78 77 76 78 77 74 77 76 77
17 14 15 17 17 16 20 16 22 18 16 19 17 15 15 11 13 11 8 9 12 20 26 26 33 49 52 53 53 52 51 53 55 57 58 58 61 63 67 68 66 68 69 69 69 68 70 71 71 72 74 74 73 73 73 73 74 74 74 74 74 74 72 71 70 70 68 70 72 73 71 71 68 67 69 67 71 72 74 75 75 75 75 75 75 75 77 77 77 77 76 78 76 78 77 77 77
16 15 12 15 18 19 21 20 18 17 17 18 18 18 17 16 19 13 10 8 11 18 25 27 29 44 48 47 49 54 55 54 57 59 61 61 62 63 67 66 66 68 69 69 68 68 68 70 70 72 73 73 73 72 72 73 74 72 72 73 73 73 73 72 72 72 71 69 68 71 69 70 69 68 70 74 72 72 73 74 75 74 75 75 75 75 77 77 77 76 76 76 76 78 78 77 77
20 18 17 18 17 19 21 20 22 23 19 18 17 15 18 19 17 12 15 14 16 14 21 24 28 28 52 50 50 54 55 57 58 59 60 60 61 63 64 64 64 65 67 68 70 71 66 67 70 72 73 73 73 72 73 73 72 72 71 72 73 74 74 74 74 74 71 69 69 69 69 67 70 69 68 71 73 71 72 72 71 71 70 72 74 73 75 76 77 76 75 73 73 76 76 76 75
11 16 18 18 17 17 17 18 18 18 22 21 20 17 21 22 19 18 20 18 18 18 24 32 28 29 31 37 52 53 52 54 59 57 58 58 59 61 63 62 63 63 66 68 68 69 71 70 71 71 72 72 72 72 72 73 72 71 73 72 72 73 72 72 72 73 72 71 70 70 69 68 70 70 69 68 71 72 73 73 71 71 69 71 74 74 74 75 76 76 76 76 75 76 75 76 77
15 18 17 16 15 17 18 19 17 14 18 22 19 19 26 15 17 18 15 22 16 18 21 25 27 26 36 38 46 52 52 53 53 52 52 54 57 58 61 64 64 68 70 71 70 71 72 72 72 71 71 72 72 71 72 72 72 71 71 72 71 71 72 73 71 71 72 72 70 70 71 71 68 70 70 67 69 69 72 73 72 73 72 72 74 76 73 74 75 76 75 73 74 76 76 76 76